,,PA_Meas_PMT16A,,PR_Meas_QMR101_102,,RH_Meas_QMH101,,SR_Meas_QMS101,,TA_Meas_QMH101,,GenWind,,GenWind,
time,status,PA,status,PR,status,RH,status,SR,status,TA,status,DirAvg,status,SpdAvg,
2010-02-05, 00:00:04,VALID,918.798,VALID,0,VALID,97.816,VALID,0.107441,VALID,19.8348,VALID,167,VALID,0.205078,
2010-02-05, 00:01:04,VALID,918.798,VALID,0,VALID,97.8008,VALID,0.107441,VALID,19.8348,VALID,167,VALID,0.152344,
2010-02-05, 00:02:04,VALID,918.818,VALID,0,VALID,97.8237,VALID,0,VALID,19.8753,VALID,167,VALID,0.071875,
2010-02-05, 00:03:04,VALID,918.814,VALID,0,VALID,97.816,VALID,0.107441,VALID,19.8543,VALID,167,VALID,0.248828,
2010-02-05, 00:04:04,VALID,918.774,VALID,0,VALID,97.816,VALID,0,VALID,19.8753,VALID,167,VALID,0.468359,
2010-02-05, 00:05:04,VALID,918.805,VALID,0,VALID,97.8008,VALID,0,VALID,19.8543,VALID,167,VALID,0.105859,
2010-02-05, 00:06:04,VALID,918.79,VALID,0,VALID,97.8084,VALID,0,VALID,19.8738,VALID,167,VALID,0.155078,
2010-02-05, 00:07:04,VALID,918.787,VALID,0,VALID,97.7932,VALID,0.107441,VALID,19.8933,VALID,167,VALID,0.00117188,
2010-02-05, 00:08:04,VALID,918.742,VALID,0,VALID,97.8084,VALID,0.107441,VALID,19.8948,VALID,167,VALID,0,
2010-02-05, 00:09:04,VALID,918.756,VALID,0,VALID,97.8008,VALID,0.107441,VALID,19.8948,VALID,167,VALID,0,
2010-02-05, 00:10:04,VALID,918.759,VALID,0,VALID,97.8008,VALID,0,VALID,19.8933,VALID,167,VALID,0,
2010-02-05, 00:11:04,VALID,918.745,VALID,0,VALID,97.8008,VALID,0.107441,VALID,19.8933,VALID,167,VALID,0,
2010-02-05, 00:12:04,VALID,918.723,VALID,0,VALID,97.8084,VALID,0.107441,VALID,19.9143,VALID,167,VALID,0,
2010-02-05, 00:13:04,VALID,918.737,VALID,0,VALID,97.8008,VALID,0,VALID,19.9143,VALID,167,VALID,0,
2010-02-05, 00:14:04,VALID,918.724,VALID,0,VALID,97.8084,VALID,0,VALID,19.8933,VALID,167,VALID,0,
2010-02-05, 00:15:04,VALID,918.739,VALID,0,VALID,97.8237,VALID,0,VALID,19.9338,VALID,167,VALID,0,
2010-02-05, 00:16:04,VALID,918.72,VALID,0,VALID,97.7932,VALID,0,VALID,19.8933,VALID,167,VALID,0,
2010-02-05, 00:17:04,VALID,918.716,VALID,0,VALID,97.8084,VALID,0,VALID,19.9143,VALID,167,VALID,0,
2010-02-05, 00:18:04,VALID,918.722,VALID,0,VALID,97.8313,VALID,0,VALID,19.8558,VALID,167,VALID,0.460547,
2010-02-05, 00:19:04,VALID,918.689,VALID,0,VALID,97.8084,VALID,0,VALID,19.7763,VALID,167,VALID,0.698828,
2010-02-05, 00:20:04,VALID,918.66,VALID,0,VALID,97.8237,VALID,0.107441,VALID,19.7568,VALID,167,VALID,0.828906,
2010-02-05, 00:21:04,VALID,918.627,VALID,0,VALID,97.8237,VALID,0.107441,VALID,19.7178,VALID,167,VALID,0.839063,
2010-02-05, 00:22:04,VALID,918.637,VALID,0,VALID,97.816,VALID,0,VALID,19.7178,VALID,167,VALID,0.812109,
2010-02-05, 00:23:04,VALID,918.598,VALID,0,VALID,97.8313,VALID,0.107441,VALID,19.6983,VALID,167,VALID,1.14766,
2010-02-05, 00:24:04,VALID,918.564,VALID,0,VALID,97.8313,VALID,0.107441,VALID,19.7193,VALID,167,VALID,1.01875,
2010-02-05, 00:25:04,VALID,918.574,VALID,0,VALID,97.8389,VALID,0.107441,VALID,19.6998,VALID,167,VALID,0.805469,
2010-02-05, 00:26:04,VALID,918.596,VALID,0,VALID,97.8465,VALID,0.107441,VALID,19.6803,VALID,167,VALID,0.96875,
2010-02-05, 00:27:04,VALID,918.538,VALID,0,VALID,97.8237,VALID,0.107441,VALID,19.6593,VALID,166,VALID,1.18125,
2010-02-05, 00:28:04,VALID,918.515,VALID,0,VALID,97.8465,VALID,0.107441,VALID,19.6788,VALID,166,VALID,1.45234,
2010-02-05, 00:29:04,VALID,918.506,VALID,0,VALID,97.8237,VALID,0,VALID,19.6998,VALID,74,VALID,1.28008,
2010-02-05, 00:30:04,VALID,918.509,VALID,0,VALID,97.8465,VALID,0,VALID,19.6998,VALID,75,VALID,0.800781,
2010-02-05, 00:31:04,VALID,918.529,VALID,0,VALID,97.8465,VALID,0,VALID,19.6998,VALID,75,VALID,0.862109,
2010-02-05, 00:32:04,VALID,918.516,VALID,0,VALID,97.8542,VALID,0,VALID,19.6998,VALID,75,VALID,0.802344,
2010-02-05, 00:33:04,VALID,918.498,VALID,0,VALID,97.8313,VALID,0,VALID,19.6803,VALID,106,VALID,1.08828,
2010-02-05, 00:34:04,VALID,918.484,VALID,0,VALID,97.8313,VALID,0,VALID,19.6803,VALID,119,VALID,0.971484,
2010-02-05, 00:35:04,VALID,918.453,VALID,0,VALID,97.8389,VALID,0.107441,VALID,19.6608,VALID,119,VALID,1.40195,
2010-02-05, 00:36:04,VALID,918.423,VALID,0,VALID,97.877,VALID,0.107441,VALID,19.6398,VALID,120,VALID,0.939453,
2010-02-05, 00:37:04,VALID,918.415,VALID,0,VALID,97.8389,VALID,0,VALID,19.6413,VALID,120,VALID,0.958203,
2010-02-05, 00:38:04,VALID,918.419,VALID,0,VALID,97.8542,VALID,0,VALID,19.6413,VALID,120,VALID,1.22148,
2010-02-05, 00:39:04,VALID,918.398,VALID,0,VALID,97.8618,VALID,0,VALID,19.6413,VALID,120,VALID,0.933984,
2010-02-05, 00:40:04,VALID,918.375,VALID,0,VALID,97.8389,VALID,0.107441,VALID,19.6413,VALID,120,VALID,1.33086,
2010-02-05, 00:41:04,VALID,918.334,VALID,0,VALID,97.8237,VALID,0,VALID,19.6398,VALID,115,VALID,1.62812,
2010-02-05, 00:42:04,VALID,918.302,VALID,0,VALID,97.8618,VALID,0,VALID,19.6413,VALID,120,VALID,1.62344,
2010-02-05, 00:43:04,VALID,918.284,VALID,0,VALID,97.8618,VALID,0,VALID,19.6413,VALID,138,VALID,1.44766,
2010-02-05, 00:44:04,VALID,918.269,VALID,0,VALID,97.8618,VALID,0,VALID,19.6203,VALID,146,VALID,1.56367,
2010-02-05, 00:45:04,VALID,918.213,VALID,0,VALID,97.877,VALID,0,VALID,19.6218,VALID,132,VALID,1.19141,
2010-02-05, 00:46:04,VALID,918.207,VALID,0,VALID,97.8618,VALID,0,VALID,19.6218,VALID,132,VALID,1.19141,
2010-02-05, 00:47:04,VALID,918.17,VALID,0,VALID,97.8618,VALID,0,VALID,19.6023,VALID,128,VALID,1.30898,
2010-02-05, 00:48:04,VALID,918.155,VALID,0,VALID,97.8694,VALID,0,VALID,19.6218,VALID,123,VALID,1.45508,
2010-02-05, 00:49:04,VALID,918.113,VALID,0,VALID,97.8542,VALID,0,VALID,19.6008,VALID,122,VALID,1.33438,
2010-02-05, 00:50:04,VALID,918.095,VALID,0,VALID,97.8465,VALID,0,VALID,19.6023,VALID,122,VALID,1.0418,
2010-02-05, 00:51:04,VALID,918.054,VALID,0,VALID,97.8389,VALID,0,VALID,19.6218,VALID,122,VALID,1.16797,
2010-02-05, 00:52:04,VALID,918.07,VALID,0,VALID,97.8618,VALID,0,VALID,19.6218,VALID,122,VALID,1.09687,
2010-02-05, 00:53:04,VALID,918.05,VALID,0,VALID,97.8618,VALID,0.107441,VALID,19.6218,VALID,122,VALID,0.650781,
2010-02-05, 00:54:04,VALID,918.076,VALID,0,VALID,97.8542,VALID,0,VALID,19.6218,VALID,121,VALID,0.798437,
2010-02-05, 00:55:04,VALID,918.047,VALID,0,VALID,97.8389,VALID,0,VALID,19.6413,VALID,121,VALID,1.32031,
2010-02-05, 00:56:04,VALID,917.998,VALID,0,VALID,97.8465,VALID,0.107441,VALID,19.6413,VALID,121,VALID,0.707422,
2010-02-05, 00:57:04,VALID,917.985,VALID,0,VALID,97.8542,VALID,0.107441,VALID,19.6593,VALID,121,VALID,1.43945,
2010-02-05, 00:58:04,VALID,917.942,VALID,0,VALID,97.8618,VALID,0,VALID,19.6803,VALID,147,VALID,1.68867,
2010-02-05, 00:59:04,VALID,917.948,VALID,0,VALID,97.8465,VALID,0,VALID,19.6398,VALID,146,VALID,0.989844,
2010-02-05, 01:00:04,VALID,917.927,VALID,0,VALID,97.8542,VALID,0.107441,VALID,19.6398,VALID,150,VALID,1.60625,
2010-02-05, 01:01:04,VALID,917.893,VALID,0,VALID,97.8542,VALID,0,VALID,19.6398,VALID,163,VALID,1.58906,
2010-02-05, 01:02:04,VALID,917.865,VALID,0,VALID,97.877,VALID,0,VALID,19.6608,VALID,156,VALID,0.671875,
2010-02-05, 01:03:04,VALID,917.869,VALID,0,VALID,97.8847,VALID,0,VALID,19.6608,VALID,127,VALID,0.908984,
2010-02-05, 01:04:04,VALID,917.827,VALID,0,VALID,97.8465,VALID,0,VALID,19.6608,VALID,127,VALID,0.639844,
2010-02-05, 01:05:04,VALID,917.833,VALID,0,VALID,97.8694,VALID,0.107441,VALID,19.6398,VALID,127,VALID,0.895703,
2010-02-05, 01:06:04,VALID,917.801,VALID,0,VALID,97.8389,VALID,0,VALID,19.6608,VALID,127,VALID,0.809766,
2010-02-05, 01:07:04,VALID,917.807,VALID,0,VALID,97.8542,VALID,0.107441,VALID,19.6608,VALID,162,VALID,1.47734,
2010-02-05, 01:08:04,VALID,917.775,VALID,0,VALID,97.8389,VALID,0,VALID,19.6398,VALID,145,VALID,1.08984,
2010-02-05, 01:09:04,VALID,917.778,VALID,0,VALID,97.8694,VALID,0.107441,VALID,19.6203,VALID,144,VALID,1.18711,
2010-02-05, 01:10:04,VALID,917.762,VALID,0,VALID,97.8542,VALID,0,VALID,19.6218,VALID,144,VALID,0.495703,
2010-02-05, 01:11:04,VALID,917.759,VALID,0,VALID,97.8618,VALID,0,VALID,19.6008,VALID,144,VALID,0.645312,
2010-02-05, 01:12:04,VALID,917.716,VALID,0,VALID,97.8618,VALID,0.107441,VALID,19.6218,VALID,144,VALID,0.628125,
2010-02-05, 01:13:04,VALID,917.693,VALID,0,VALID,97.8618,VALID,0.107441,VALID,19.5813,VALID,144,VALID,0.416406,
2010-02-05, 01:14:04,VALID,917.702,VALID,0,VALID,97.8542,VALID,0,VALID,19.5813,VALID,127,VALID,1.32656,
2010-02-05, 01:15:04,VALID,917.697,VALID,0,VALID,97.877,VALID,0.107441,VALID,19.5828,VALID,127,VALID,0.701172,
2010-02-05, 01:16:04,VALID,917.697,VALID,0,VALID,97.8694,VALID,0.107441,VALID,19.5828,VALID,127,VALID,0.945313,
2010-02-05, 01:17:04,VALID,917.707,VALID,0,VALID,97.8618,VALID,0,VALID,19.5828,VALID,120,VALID,0.658984,
2010-02-05, 01:18:04,VALID,917.715,VALID,0,VALID,97.8389,VALID,0,VALID,19.5618,VALID,120,VALID,0.741797,
2010-02-05, 01:19:04,VALID,917.742,VALID,0,VALID,97.8618,VALID,0.107441,VALID,19.5828,VALID,120,VALID,0.444141,
2010-02-05, 01:20:04,VALID,917.773,VALID,0,VALID,97.8465,VALID,0.107441,VALID,19.5618,VALID,120,VALID,0.598828,
2010-02-05, 01:21:04,VALID,917.778,VALID,0,VALID,97.8694,VALID,0,VALID,19.5618,VALID,120,VALID,0.110547,
2010-02-05, 01:22:04,VALID,917.746,VALID,0,VALID,97.8542,VALID,0,VALID,19.5828,VALID,120,VALID,0.378906,
2010-02-05, 01:23:05,VALID,917.77,VALID,0,VALID,97.8465,VALID,0.107441,VALID,19.5828,VALID,120,VALID,0.424219,
2010-02-05, 01:24:05,VALID,917.752,VALID,0,VALID,97.8542,VALID,0,VALID,19.5828,VALID,121,VALID,0.278125,
2010-02-05, 01:25:05,VALID,917.752,VALID,0,VALID,97.8465,VALID,0,VALID,19.5828,VALID,121,VALID,0.328125,
2010-02-05, 01:26:05,VALID,917.699,VALID,0,VALID,97.8694,VALID,0,VALID,19.5633,VALID,120,VALID,0.753906,
2010-02-05, 01:27:05,VALID,917.726,VALID,0,VALID,97.8694,VALID,0,VALID,19.5633,VALID,120,VALID,0.626953,
2010-02-05, 01:28:05,VALID,917.641,VALID,0,VALID,97.8694,VALID,0,VALID,19.5633,VALID,121,VALID,0.550781,
2010-02-05, 01:29:05,VALID,917.62,VALID,0,VALID,97.8542,VALID,0,VALID,19.5438,VALID,121,VALID,0.519531,
2010-02-05, 01:30:05,VALID,917.585,VALID,0,VALID,97.8694,VALID,0,VALID,19.5633,VALID,121,VALID,0.621094,
2010-02-05, 01:31:05,VALID,917.607,VALID,0,VALID,97.8694,VALID,0,VALID,19.5423,VALID,120,VALID,0.757422,
2010-02-05, 01:32:05,VALID,917.531,VALID,0,VALID,97.8618,VALID,0,VALID,19.5438,VALID,121,VALID,1.02891,
2010-02-05, 01:33:05,VALID,917.562,VALID,0,VALID,97.8618,VALID,0,VALID,19.5633,VALID,121,VALID,0.969531,
2010-02-05, 01:34:05,VALID,917.547,VALID,0,VALID,97.8465,VALID,0,VALID,19.5633,VALID,121,VALID,0.976953,
2010-02-05, 01:35:05,VALID,917.581,VALID,0,VALID,97.877,VALID,0,VALID,19.5633,VALID,121,VALID,0.979297,
2010-02-05, 01:36:05,VALID,917.559,VALID,0,VALID,97.8694,VALID,0,VALID,19.5243,VALID,121,VALID,0.840234,
2010-02-05, 01:37:05,VALID,917.572,VALID,0,VALID,97.8618,VALID,0.107441,VALID,19.5228,VALID,120,VALID,0.751172,
2010-02-05, 01:38:05,VALID,917.568,VALID,0,VALID,97.877,VALID,0.107441,VALID,19.5048,VALID,121,VALID,0.775,
2010-02-05, 01:39:05,VALID,917.569,VALID,0,VALID,97.8923,VALID,0.107441,VALID,19.5048,VALID,121,VALID,0.416797,
2010-02-05, 01:40:05,VALID,917.562,VALID,0,VALID,97.8618,VALID,0.107441,VALID,19.5048,VALID,121,VALID,0.381641,
2010-02-05, 01:41:05,VALID,917.584,VALID,0,VALID,97.8847,VALID,0,VALID,19.5033,VALID,121,VALID,0.153516,
2010-02-05, 01:42:05,VALID,917.548,VALID,0,VALID,97.8847,VALID,0,VALID,19.5228,VALID,121,VALID,0.502734,
2010-02-05, 01:43:05,VALID,917.567,VALID,0,VALID,97.8618,VALID,0.107441,VALID,19.5243,VALID,121,VALID,0.497266,
2010-02-05, 01:44:05,VALID,917.566,VALID,0,VALID,97.877,VALID,0.107441,VALID,19.5243,VALID,120,VALID,0.71875,
2010-02-05, 01:45:05,VALID,917.563,VALID,0,VALID,97.8923,VALID,0,VALID,19.5243,VALID,120,VALID,0.740625,
2010-02-05, 01:46:05,VALID,917.563,VALID,0,VALID,97.8847,VALID,0,VALID,19.5243,VALID,120,VALID,0.789063,
2010-02-05, 01:47:05,VALID,917.566,VALID,0,VALID,97.8694,VALID,0,VALID,19.5243,VALID,121,VALID,0.656641,
2010-02-05, 01:48:05,VALID,917.53,VALID,0,VALID,97.8923,VALID,0.107441,VALID,19.5048,VALID,120,VALID,0.503125,
2010-02-05, 01:49:05,VALID,917.519,VALID,0,VALID,97.8694,VALID,0,VALID,19.4644,VALID,120,VALID,0.825391,
2010-02-05, 01:50:05,VALID,917.501,VALID,0,VALID,97.8847,VALID,0,VALID,19.4658,VALID,121,VALID,1.09961,
2010-02-05, 01:51:05,VALID,917.499,VALID,0,VALID,97.877,VALID,0,VALID,19.4853,VALID,129,VALID,1.38594,
2010-02-05, 01:52:05,VALID,917.457,VALID,0,VALID,97.8847,VALID,0,VALID,19.4853,VALID,129,VALID,1.10312,
2010-02-05, 01:53:05,VALID,917.448,VALID,0,VALID,97.8847,VALID,0.107441,VALID,19.4853,VALID,142,VALID,1.22578,
2010-02-05, 01:54:05,VALID,917.42,VALID,0,VALID,97.8847,VALID,0,VALID,19.4853,VALID,129,VALID,0.967188,
2010-02-05, 01:55:05,VALID,917.424,VALID,0,VALID,97.8847,VALID,0.107441,VALID,19.4853,VALID,138,VALID,1.29492,
2010-02-05, 01:56:05,VALID,917.418,VALID,0,VALID,97.8923,VALID,0.107441,VALID,19.5048,VALID,119,VALID,1.32813,
2010-02-05, 01:57:05,VALID,917.449,VALID,0,VALID,97.8999,VALID,0.107441,VALID,19.4853,VALID,102,VALID,0.539453,
2010-02-05, 01:58:05,VALID,917.465,VALID,0,VALID,97.8923,VALID,0.107441,VALID,19.4449,VALID,103,VALID,0.926172,
2010-02-05, 01:59:05,VALID,917.467,VALID,0,VALID,97.8923,VALID,0,VALID,19.4463,VALID,128,VALID,1.25977,
2010-02-05, 02:00:05,VALID,917.471,VALID,0,VALID,97.8847,VALID,0,VALID,19.4463,VALID,108,VALID,1.46016,
2010-02-05, 02:01:05,VALID,917.48,VALID,0,VALID,97.8999,VALID,0,VALID,19.4463,VALID,108,VALID,1.01875,
2010-02-05, 02:02:05,VALID,917.483,VALID,0,VALID,97.9075,VALID,0,VALID,19.4059,VALID,108,VALID,1.02344,
2010-02-05, 02:03:05,VALID,917.45,VALID,0,VALID,97.9075,VALID,0,VALID,19.4268,VALID,108,VALID,1.11016,
2010-02-05, 02:04:05,VALID,917.464,VALID,0,VALID,97.9075,VALID,0.107441,VALID,19.4268,VALID,108,VALID,0.611719,
2010-02-05, 02:05:05,VALID,917.475,VALID,0,VALID,97.8999,VALID,0.107441,VALID,19.4463,VALID,108,VALID,0.919922,
2010-02-05, 02:06:05,VALID,917.438,VALID,0,VALID,97.8923,VALID,0,VALID,19.4463,VALID,108,VALID,0.873438,
2010-02-05, 02:07:05,VALID,917.442,VALID,0,VALID,97.8999,VALID,0.107441,VALID,19.4254,VALID,171,VALID,1.18594,
2010-02-05, 02:08:05,VALID,917.429,VALID,0,VALID,97.8847,VALID,0.107441,VALID,19.4463,VALID,192,VALID,1.25117,
2010-02-05, 02:09:05,VALID,917.401,VALID,0,VALID,97.8999,VALID,0,VALID,19.4463,VALID,185,VALID,1.42148,
2010-02-05, 02:10:05,VALID,917.414,VALID,0,VALID,97.877,VALID,0.107441,VALID,19.4658,VALID,187,VALID,1.48555,
2010-02-05, 02:11:05,VALID,917.393,VALID,0,VALID,97.9152,VALID,0,VALID,19.4644,VALID,153,VALID,0.876562,
2010-02-05, 02:12:05,VALID,917.368,VALID,0,VALID,97.8923,VALID,0,VALID,19.4463,VALID,175,VALID,1.39258,
2010-02-05, 02:13:05,VALID,917.375,VALID,0,VALID,97.9075,VALID,0,VALID,19.4658,VALID,156,VALID,1.16211,
2010-02-05, 02:14:05,VALID,917.378,VALID,0,VALID,97.8923,VALID,0.107441,VALID,19.4658,VALID,156,VALID,0.814453,
2010-02-05, 02:15:05,VALID,917.396,VALID,0,VALID,97.877,VALID,0.107441,VALID,19.4658,VALID,156,VALID,0.96875,
2010-02-05, 02:16:05,VALID,917.4,VALID,0,VALID,97.8999,VALID,0.107441,VALID,19.4853,VALID,166,VALID,1.93438,
2010-02-05, 02:17:05,VALID,917.411,VALID,0,VALID,97.8923,VALID,0.107441,VALID,19.4644,VALID,187,VALID,0.809375,
2010-02-05, 02:18:05,VALID,917.426,VALID,0,VALID,97.8923,VALID,0.107441,VALID,19.5048,VALID,187,VALID,0.538281,
2010-02-05, 02:19:05,VALID,917.441,VALID,0,VALID,97.9075,VALID,0.107441,VALID,19.4449,VALID,187,VALID,0.933203,
2010-02-05, 02:20:05,VALID,917.447,VALID,0,VALID,97.9075,VALID,0,VALID,19.4658,VALID,97,VALID,0.938281,
2010-02-05, 02:21:05,VALID,917.483,VALID,0,VALID,97.8923,VALID,0,VALID,19.4644,VALID,97,VALID,0.853516,
2010-02-05, 02:22:05,VALID,917.45,VALID,0,VALID,97.8923,VALID,0,VALID,19.4463,VALID,97,VALID,0.847266,
2010-02-05, 02:23:05,VALID,917.499,VALID,0,VALID,97.8847,VALID,0.107441,VALID,19.4463,VALID,97,VALID,0.450781,
2010-02-05, 02:24:05,VALID,917.504,VALID,0,VALID,97.9152,VALID,0,VALID,19.4254,VALID,96,VALID,0.376953,
2010-02-05, 02:25:05,VALID,917.502,VALID,0,VALID,97.8999,VALID,0,VALID,19.4059,VALID,97,VALID,0.851953,
2010-02-05, 02:26:05,VALID,917.496,VALID,0,VALID,97.8999,VALID,0,VALID,19.4658,VALID,96,VALID,0.842188,
2010-02-05, 02:27:05,VALID,917.511,VALID,0,VALID,97.8999,VALID,0.107441,VALID,19.4463,VALID,96,VALID,0.840234,
2010-02-05, 02:28:05,VALID,917.503,VALID,0,VALID,97.8999,VALID,0,VALID,19.4463,VALID,96,VALID,0.519922,
2010-02-05, 02:29:05,VALID,917.5,VALID,0,VALID,97.8923,VALID,0,VALID,19.4463,VALID,96,VALID,0.428516,
2010-02-05, 02:30:05,VALID,917.491,VALID,0,VALID,97.8847,VALID,0.107441,VALID,19.4853,VALID,96,VALID,0.911719,
2010-02-05, 02:31:05,VALID,917.519,VALID,0,VALID,97.9075,VALID,0,VALID,19.4853,VALID,96,VALID,1.1418,
2010-02-05, 02:32:05,VALID,917.53,VALID,0,VALID,97.9075,VALID,0,VALID,19.4644,VALID,96,VALID,0.451562,
2010-02-05, 02:33:05,VALID,917.548,VALID,0,VALID,97.8923,VALID,0,VALID,19.4853,VALID,96,VALID,0.197266,
2010-02-05, 02:34:05,VALID,917.587,VALID,0,VALID,97.9152,VALID,0.107441,VALID,19.5048,VALID,96,VALID,0.589844,
2010-02-05, 02:35:05,VALID,917.592,VALID,0,VALID,97.9075,VALID,0,VALID,19.4853,VALID,96,VALID,0.487109,
2010-02-05, 02:36:05,VALID,917.633,VALID,0,VALID,97.8999,VALID,0,VALID,19.4644,VALID,96,VALID,0.481641,
2010-02-05, 02:37:05,VALID,917.644,VALID,0,VALID,97.9075,VALID,0,VALID,19.4644,VALID,96,VALID,0.35,
2010-02-05, 02:38:05,VALID,917.639,VALID,0,VALID,97.877,VALID,0,VALID,19.5048,VALID,96,VALID,0,
2010-02-05, 02:39:05,VALID,917.626,VALID,0,VALID,97.8999,VALID,0,VALID,19.4853,VALID,96,VALID,0,
2010-02-05, 02:40:05,VALID,917.623,VALID,0,VALID,97.8923,VALID,0,VALID,19.5048,VALID,96,VALID,0,
2010-02-05, 02:41:05,VALID,917.605,VALID,0,VALID,97.8999,VALID,0,VALID,19.5048,VALID,96,VALID,0.0253906,
2010-02-05, 02:42:05,VALID,917.567,VALID,0,VALID,97.8847,VALID,0,VALID,19.5048,VALID,96,VALID,0.525,
2010-02-05, 02:43:05,VALID,917.567,VALID,0,VALID,97.9152,VALID,0,VALID,19.5048,VALID,96,VALID,0.648828,
2010-02-05, 02:44:05,VALID,917.526,VALID,0,VALID,97.8847,VALID,0,VALID,19.4853,VALID,96,VALID,0.856641,
2010-02-05, 02:45:05,VALID,917.539,VALID,0,VALID,97.8999,VALID,0.107441,VALID,19.4853,VALID,96,VALID,0.768359,
2010-02-05, 02:46:05,VALID,917.499,VALID,0,VALID,97.8847,VALID,0,VALID,19.4853,VALID,96,VALID,0.275781,
2010-02-05, 02:47:05,VALID,917.51,VALID,0,VALID,97.8847,VALID,0,VALID,19.4853,VALID,96,VALID,0.394141,
2010-02-05, 02:48:05,VALID,917.495,VALID,0,VALID,97.8999,VALID,0,VALID,19.4658,VALID,96,VALID,0.486719,
2010-02-05, 02:49:05,VALID,917.482,VALID,0,VALID,97.8923,VALID,0,VALID,19.4463,VALID,96,VALID,0.266797,
2010-02-05, 02:50:05,VALID,917.49,VALID,0,VALID,97.9075,VALID,0.107441,VALID,19.4658,VALID,96,VALID,0.392578,
2010-02-05, 02:51:05,VALID,917.52,VALID,0,VALID,97.9075,VALID,0,VALID,19.4463,VALID,96,VALID,0.426562,
2010-02-05, 02:52:05,VALID,917.518,VALID,0,VALID,97.8923,VALID,0,VALID,19.4658,VALID,96,VALID,0.201562,
2010-02-05, 02:53:05,VALID,917.51,VALID,0,VALID,97.8847,VALID,0.107441,VALID,19.4463,VALID,96,VALID,0,
2010-02-05, 02:54:05,VALID,917.531,VALID,0,VALID,97.8999,VALID,0,VALID,19.4463,VALID,96,VALID,0,
2010-02-05, 02:55:05,VALID,917.529,VALID,0,VALID,97.9075,VALID,0,VALID,19.4463,VALID,96,VALID,0,
2010-02-05, 02:56:05,VALID,917.529,VALID,0,VALID,97.8999,VALID,0,VALID,19.4463,VALID,96,VALID,0,
2010-02-05, 02:57:05,VALID,917.509,VALID,0,VALID,97.9228,VALID,0.107441,VALID,19.4059,VALID,96,VALID,0,
2010-02-05, 02:58:05,VALID,917.495,VALID,0,VALID,97.9152,VALID,0.107441,VALID,19.4268,VALID,96,VALID,0,
2010-02-05, 02:59:05,VALID,917.483,VALID,0,VALID,97.9152,VALID,0,VALID,19.4074,VALID,96,VALID,0.236328,
2010-02-05, 03:00:05,VALID,917.469,VALID,0,VALID,97.9228,VALID,0,VALID,19.3864,VALID,96,VALID,0.420312,
2010-02-05, 03:01:05,VALID,917.463,VALID,0,VALID,97.9228,VALID,0,VALID,19.4074,VALID,96,VALID,0.401563,
2010-02-05, 03:02:05,VALID,917.486,VALID,0,VALID,97.9152,VALID,0,VALID,19.3879,VALID,96,VALID,0.280469,
2010-02-05, 03:03:05,VALID,917.522,VALID,0,VALID,97.9075,VALID,0,VALID,19.3879,VALID,96,VALID,0.227734,
2010-02-05, 03:04:05,VALID,917.534,VALID,0,VALID,97.8923,VALID,0.107441,VALID,19.3474,VALID,97,VALID,0.311719,
2010-02-05, 03:05:05,VALID,917.531,VALID,0,VALID,97.9075,VALID,0.107441,VALID,19.3489,VALID,97,VALID,0.535937,
2010-02-05, 03:06:05,VALID,917.557,VALID,0,VALID,97.9152,VALID,0,VALID,19.3099,VALID,97,VALID,0.557422,
2010-02-05, 03:07:05,VALID,917.576,VALID,0,VALID,97.9152,VALID,0,VALID,19.2694,VALID,97,VALID,0.711328,
2010-02-05, 03:08:05,VALID,917.556,VALID,0,VALID,97.9304,VALID,0,VALID,19.2889,VALID,97,VALID,0.421875,
2010-02-05, 03:09:05,VALID,917.575,VALID,0,VALID,97.9228,VALID,0,VALID,19.2904,VALID,97,VALID,0.280859,
2010-02-05, 03:10:05,VALID,917.561,VALID,0,VALID,97.9152,VALID,0.107441,VALID,19.3294,VALID,96,VALID,0.285937,
2010-02-05, 03:11:05,VALID,917.553,VALID,0,VALID,97.9304,VALID,0,VALID,19.3099,VALID,96,VALID,0.0308594,
2010-02-05, 03:12:05,VALID,917.57,VALID,0,VALID,97.9152,VALID,0,VALID,19.3099,VALID,96,VALID,0,
2010-02-05, 03:13:05,VALID,917.564,VALID,0,VALID,97.9456,VALID,0,VALID,19.3294,VALID,96,VALID,0.00117188,
2010-02-05, 03:14:05,VALID,917.56,VALID,0,VALID,97.9152,VALID,0,VALID,19.3099,VALID,96,VALID,0.271484,
2010-02-05, 03:15:05,VALID,917.559,VALID,0,VALID,97.9228,VALID,0,VALID,19.3084,VALID,96,VALID,0.223438,
2010-02-05, 03:16:05,VALID,917.626,VALID,0,VALID,97.9304,VALID,0.107441,VALID,19.3099,VALID,96,VALID,0.364844,
2010-02-05, 03:17:05,VALID,917.603,VALID,0,VALID,97.9533,VALID,0,VALID,19.2709,VALID,96,VALID,0.529297,
2010-02-05, 03:18:05,VALID,917.63,VALID,0,VALID,97.9304,VALID,0,VALID,19.2709,VALID,97,VALID,0.726563,
2010-02-05, 03:19:05,VALID,917.634,VALID,0,VALID,97.9152,VALID,0,VALID,19.2709,VALID,96,VALID,0.845703,
2010-02-05, 03:20:05,VALID,917.654,VALID,0,VALID,97.9304,VALID,0,VALID,19.2709,VALID,96,VALID,0.889844,
2010-02-05, 03:21:05,VALID,917.679,VALID,0,VALID,97.9228,VALID,0,VALID,19.2709,VALID,96,VALID,1.01445,
2010-02-05, 03:22:05,VALID,917.64,VALID,0,VALID,97.9152,VALID,0,VALID,19.2709,VALID,96,VALID,1.15898,
2010-02-05, 03:23:05,VALID,917.677,VALID,0,VALID,97.9304,VALID,0,VALID,19.2514,VALID,96,VALID,0.752344,
2010-02-05, 03:24:05,VALID,917.667,VALID,0,VALID,97.9304,VALID,0,VALID,19.2514,VALID,96,VALID,0.879687,
2010-02-05, 03:25:05,VALID,917.615,VALID,0,VALID,97.9456,VALID,0.107441,VALID,19.2694,VALID,96,VALID,0.972266,
2010-02-05, 03:26:05,VALID,917.653,VALID,0,VALID,97.9456,VALID,0,VALID,19.2904,VALID,96,VALID,0.978125,
2010-02-05, 03:27:05,VALID,917.655,VALID,0,VALID,97.9456,VALID,0,VALID,19.2709,VALID,96,VALID,0.851172,
2010-02-05, 03:28:05,VALID,917.622,VALID,0,VALID,97.9304,VALID,0,VALID,19.2709,VALID,96,VALID,0.478516,
2010-02-05, 03:29:05,VALID,917.641,VALID,0,VALID,97.938,VALID,0,VALID,19.2709,VALID,96,VALID,0.578125,
2010-02-05, 03:30:05,VALID,917.647,VALID,0,VALID,97.9533,VALID,0,VALID,19.2709,VALID,96,VALID,0.836719,
2010-02-05, 03:31:05,VALID,917.625,VALID,0,VALID,97.9456,VALID,0.107441,VALID,19.2709,VALID,96,VALID,0.730859,
2010-02-05, 03:32:05,VALID,917.64,VALID,0,VALID,97.9456,VALID,0,VALID,19.2499,VALID,96,VALID,0.729297,
2010-02-05, 03:33:05,VALID,917.611,VALID,0,VALID,97.9533,VALID,0,VALID,19.2304,VALID,96,VALID,0.710547,
2010-02-05, 03:34:05,VALID,917.624,VALID,0,VALID,97.9609,VALID,0.107441,VALID,19.2709,VALID,96,VALID,0.678516,
2010-02-05, 03:35:05,VALID,917.602,VALID,0,VALID,97.9533,VALID,0,VALID,19.2499,VALID,96,VALID,0.926562,
2010-02-05, 03:36:05,VALID,917.603,VALID,0,VALID,97.9456,VALID,0.107441,VALID,19.2514,VALID,96,VALID,1.00859,
2010-02-05, 03:37:05,VALID,917.591,VALID,0,VALID,97.9456,VALID,0.107441,VALID,19.2514,VALID,96,VALID,1.1168,
2010-02-05, 03:38:05,VALID,917.577,VALID,0,VALID,97.9533,VALID,0,VALID,19.2319,VALID,136,VALID,1.0543,
2010-02-05, 03:39:05,VALID,917.567,VALID,0,VALID,97.9456,VALID,0,VALID,19.2319,VALID,149,VALID,0.964844,
2010-02-05, 03:40:05,VALID,917.58,VALID,0,VALID,97.9456,VALID,0,VALID,19.2319,VALID,150,VALID,1.06641,
2010-02-05, 03:41:05,VALID,917.571,VALID,0,VALID,97.9533,VALID,0,VALID,19.2514,VALID,151,VALID,1.07031,